STARLINK-2514, 48331

Orbit data source: Space-Track

STARLINK-2514, 48331 is a payload satellite owned by SpaceX/Seattle (US) in LEO that was launched on Thu, 29 Apr 2021 UTC via an FALCON 9 launch vehicle from the Air Force Eastern Test Range (AFETR). Payload-class satellites include a variety of spacecraft equipped with specific instruments for various scientific and technological missions. These include communications satellites like Starlink; space stations such as the ISS; scientific satellites like the Hubble; Earth observation satellites from companies like Planet Labs, Umbra, and HawkEye 360; GPS; miniature CubeSats for education and research; and military/defense satellites.

Loading next visibility...
Identifier
48331, 2021-036BH
Orbit
LEO
Country
Flag of USUS
Related business
Manufacturer
SpaceX/Seattle
Mission
Operational Commercial Communications
Bus & Motor
STARLINK, Unknown motor
Mass
260 kg wet, ~248 kg dry
Launch date (UTC)
2021-04-29 (4 years ago)
Launch vehicle
FALCON 9
Launch site
Air Force Eastern Test Range (AFETR)
Object type
Payload
Rocket body
Debris
Shape & HBR
Box + 1 Pan, 10.1 m
Radar Cross Section
13.562 m², Large (>1 m²)

Expand to show TLE details & history
Last TLE update: 15 hours ago

TLE from 15 hours ago
0 STARLINK-2514
1 48331U 21036BH  25291.23094902  .00002559  00000-0  19056-3 0  9994
2 48331  53.0551  21.1416 0001805  94.9464 265.1731 15.06410229246563
Epoch: 2025-10-18T05:32Z
TLE epoch observation values (Epoch: 2025-10-18T05:32:33.995Z)
Latitude
-0.00002°
Longitude
-88.965°
Altitude
548.165 km
Speed
7.589 km/s
True Right ascension
01h 24m 33s
True Declination
0° 00' 00"
Sunlit
Object was in full shadow at epoch
Visualization orbit readout
Latitude
Unknown
Longitude
Unknown
Altitude
Unknown
Speed
Unknown
Apparent Right ascension
Unknown
Apparent Declination
Unknown
Sunlit
N/A
Visualization observer readout
Local Sidereal Time
15:38:28
Azimuth
Unknown
Elevation
Unknown
Doppler factor
Unknown
Orbital elements
Apogee altitude
548.701 km
Perigee altitude
546.201 km
Semi-major axis
6,925.588 km
Eccentricity
0.00018
Inclination
53.0551°
RAAN
21.1416°
Arg. of periapsis
94.9464°
True anomaly
265.15249°
Mean anomaly
265.1731°
Eccentric anomaly
265.16279°
Mean motion
3.76581 °/min
Orbital period
95.6 mins
BSTAR
0.00019056
Loading maneuver chart data...
Computing Atmospheric mass density...
Loading historical data...
Loading historical data...
Loading historical data...
Loading historical data...
Loading historical data...
Loading historical data...
Loading historical data...

Documentation

Showing up to 5 results
|